Date,TemperatureHighF,TemperatureAvgF,TemperatureLowF,DewpointHighF,DewpointAvgF,DewpointLowF,HumidityHigh,HumidityAvg,HumidityLow,PressureMaxIn,PressureMinIn,WindSpeedMaxMPH,WindSpeedAvgMPH,GustSpeedMaxMPH,PrecipitationSumIn
2013-1-10,81.0,74.5,67.0,80.0,70.8,66.0,98,90,68,29.45,29.32,16,9,22,0.00
2013-1-11,81.0,73.1,64.0,76.0,69.0,63.0,98,88,67,29.51,29.42,13,7,16,0.00
2013-1-12,86.0,77.7,66.0,85.0,76.7,65.0,98,98,98,29.51,29.31,24,8,24,0.00
2013-1-13,98.0,84.3,72.0,89.0,78.4,69.0,98,86,39,29.31,29.06,11,4,18,0.00
2013-1-14,88.0,80.0,75.0,87.0,79.0,74.0,98,98,98,29.45,29.23,16,7,20,0.26
2013-1-15,85.0,78.1,74.0,84.0,77.1,73.0,98,98,98,29.50,29.41,16,11,22,0.40
2013-1-16,89.0,80.6,75.0,88.0,79.6,74.0,98,98,98,29.43,29.24,15,9,21,0.01
2013-1-17,88.0,81.4,79.0,87.0,80.4,78.0,98,98,98,29.31,29.22,13,7,16,0.08
2013-1-18,84.0,79.2,74.0,83.0,78.2,73.0,98,98,98,29.41,29.28,12,5,13,0.20
2013-1-19,86.0,78.8,74.0,81.0,73.3,48.0,98,87,31,29.40,29.25,15,8,20,0.14
2013-1-20,84.0,78.0,72.0,83.0,77.0,71.0,98,98,97,29.39,29.20,16,6,23,0.00
2013-1-21,85.0,77.3,70.0,84.0,73.7,67.0,98,90,65,29.44,29.36,14,6,18,0.00
2013-1-22,85.0,78.4,70.0,84.0,77.2,69.0,98,97,89,29.44,29.31,10,5,16,0.00
2013-1-23,85.0,78.4,73.0,84.0,77.4,71.0,98,98,98,29.35,29.28,11,4,15,0.00
2013-1-24,87.0,78.4,69.0,86.0,77.4,68.0,98,98,98,29.35,29.24,18,6,22,0.00
2013-1-25,82.0,75.7,68.0,81.0,74.7,67.0,98,98,98,29.50,29.34,13,6,18,0.02
2013-1-26,85.0,75.5,66.0,84.0,74.5,65.0,98,98,98,29.50,29.41,12,5,16,0.01
2013-1-27,86.0,77.2,67.0,85.0,76.2,66.0,98,98,98,29.56,29.42,14,5,16,0.00
2013-1-28,87.0,79.4,71.0,86.0,78.3,70.0,98,98,77,29.55,29.46,18,8,22,0.00
2013-1-29,87.0,80.4,74.0,86.0,79.4,73.0,98,98,98,29.48,29.21,16,12,26,0.02
2013-1-30,85.0,80.5,77.0,84.0,79.5,76.0,98,98,98,29.45,29.23,12,6,25,0.05
2013-1-31,87.0,78.3,76.0,87.0,76.7,56.0,100,96,49,29.48,29.44,16,9,23,0.03
2013-2-1,90.0,79.4,73.0,90.0,78.7,65.0,100,98,67,29.46,29.22,13,6,20,0.01
2013-2-2,91.0,80.1,74.0,89.0,73.2,-4.0,100,88,3,29.25,29.16,13,6,17,0.00
2013-2-3,79.0,74.6,68.0,79.0,70.2,2.0,100,92,5,29.39,29.16,17,6,23,0.32
2013-2-4,82.0,74.4,68.0,71.0,53.6,-22.0,100,61,2,29.52,29.39,14,5,16,0.02
2013-2-5,85.0,75.1,62.0,75.0,64.0,36.0,100,74,21,29.51,29.41,13,6,16,0.00
2013-2-6,88.0,77.1,68.0,83.0,71.5,42.0,98,86,25,29.44,29.36,12,5,16,0.00
2013-2-7,86.0,76.7,69.0,85.0,75.7,68.0,98,98,98,29.40,29.25,12,4,16,0.00
2013-2-8,87.0,79.2,69.0,86.0,78.2,68.0,98,98,97,29.30,29.20,14,5,16,0.00
2013-2-9,82.0,79.2,77.0,81.0,78.2,76.0,98,98,98,29.26,29.11,12,8,18,0.31
2013-2-10,89.0,78.3,70.0,88.0,77.3,69.0,98,98,98,29.28,29.10,14,6,21,0.18
2013-2-11,88.0,78.4,70.0,87.0,77.4,69.0,98,98,98,29.39,29.21,13,6,20,0.18
2013-2-12,89.0,79.9,72.0,88.0,78.9,71.0,98,98,98,29.39,29.21,15,6,17,0.00
2013-2-13,94.0,79.8,72.0,89.0,78.8,71.0,98,98,86,29.21,29.05,12,5,17,0.00
2013-2-14,88.0,77.1,70.0,87.0,74.4,65.0,98,93,73,29.41,29.13,17,8,23,0.00
2013-2-15,82.0,74.3,69.0,78.0,70.7,59.0,98,91,50,29.54,29.41,10,5,15,0.08
2013-2-16,84.0,76.7,69.0,83.0,75.7,68.0,98,98,98,29.54,29.35,16,8,21,0.02
2013-2-17,89.0,80.2,75.0,88.0,79.2,74.0,98,98,98,29.35,29.08,15,6,17,0.00
2013-2-18,90.0,79.4,74.0,89.0,78.4,72.0,98,98,98,29.10,28.99,17,7,20,0.00
2013-2-19,88.0,77.0,71.0,88.0,73.8,21.0,100,93,10,29.33,29.07,18,9,25,0.00
2013-2-20,81.0,71.9,64.0,77.0,60.0,6.0,100,73,7,29.54,29.32,17,8,22,0.00
2013-2-21,85.0,72.9,60.0,79.0,65.3,36.0,100,81,24,29.53,29.34,12,3,16,0.00
2013-2-22,88.0,75.8,66.0,82.0,56.8,-13.0,98,77,2,29.40,29.24,13,6,17,0.01
2013-2-23,86.0,76.7,70.0,84.0,47.9,-14.0,100,68,2,29.44,29.34,17,7,21,0.01
2013-2-24,90.0,77.0,68.0,85.0,65.7,2.0,100,77,4,29.44,29.36,10,4,15,0.00
2013-2-25,95.0,78.2,71.0,90.0,74.9,18.0,100,95,6,29.37,29.13,9,4,13,0.00
2013-2-26,88.0,79.8,73.0,88.0,78.6,51.0,100,97,32,29.34,29.24,12,6,17,0.00
2013-2-27,87.0,79.2,71.0,87.0,78.0,49.0,100,97,29,29.33,29.08,15,3,16,0.00
2013-2-28,78.0,73.2,67.0,78.0,72.6,63.0,100,99,72,29.56,29.20,12,5,20,0.42
2013-3-1,85.0,74.7,63.0,85.0,74.3,62.0,100,99,98,29.56,29.47,10,4,14,0.01
2013-3-2,87.0,76.7,68.0,87.0,74.3,12.0,100,96,9,29.55,29.47,11,4,15,0.00
2013-3-3,90.0,76.9,66.0,87.0,73.0,30.0,100,92,14,29.55,29.48,10,4,14,0.00
2013-3-4,93.0,81.3,74.0,89.0,66.3,-11.0,100,76,2,29.50,29.18,10,6,15,0.00
2013-3-5,91.0,82.9,77.0,89.0,78.2,43.0,100,89,25,29.34,29.15,16,8,22,0.00
2013-3-6,89.0,80.2,73.0,89.0,78.5,58.0,100,96,38,29.34,29.24,16,6,22,0.01
2013-3-7,86.0,77.4,70.0,83.0,73.2,41.0,98,90,22,29.32,29.14,14,6,20,0.01
2013-3-8,90.0,76.9,70.0,89.0,75.8,69.0,100,98,72,29.42,29.07,17,7,28,0.22
2013-3-9,82.0,73.5,67.0,82.0,73.1,66.0,100,99,98,29.68,29.41,12,6,16,0.44
2013-3-10,85.0,77.1,71.0,85.0,75.8,-7.0,100,98,4,29.67,29.52,16,11,23,0.01
2013-3-11,86.0,78.5,72.0,86.0,77.7,71.0,100,98,96,29.54,29.33,16,10,24,0.00
2013-3-12,84.0,74.3,67.0,83.0,73.3,66.0,98,98,98,29.50,29.26,14,6,18,0.00
2013-3-13,76.0,71.3,67.0,75.0,70.3,66.0,98,98,98,29.54,29.46,14,7,23,0.00
2013-3-14,76.0,69.9,63.0,75.0,68.9,62.0,98,98,78,29.47,29.13,18,11,25,0.00
2013-3-15,81.0,69.2,61.0,81.0,67.1,9.0,100,97,7,29.26,29.05,18,9,24,0.00
2013-3-16,76.0,69.0,64.0,75.0,68.0,63.0,98,98,98,29.41,29.25,12,6,21,0.00
2013-3-17,83.0,71.4,60.0,82.0,69.8,54.0,100,96,43,29.39,29.31,13,4,16,0.00
2013-3-18,85.0,75.5,68.0,84.0,74.5,67.0,98,98,98,29.38,29.27,10,6,16,0.01
2013-3-19,77.0,71.1,68.0,76.0,70.1,67.0,98,98,98,29.44,29.36,12,8,16,0.01
2013-3-20,86.0,82.2,71.0,85.0,76.2,27.0,98,88,14,29.39,29.31,6,5,10,0.01
2013-3-30,72.0,71.6,71.0,71.0,70.6,70.0,98,98,98,29.61,29.59,20,14,25,0.01